TimeCST,TemperatureF,Dew PointF,Humidity,Sea Level PressureIn,VisibilityMPH,Wind Direction,Wind SpeedMPH,Gust SpeedMPH,PrecipitationIn,Events,Conditions,WindDirDegrees,DateUTC
12:20 AM,35.6,33.8,93,29.87,8.0,SE,15.0,-,0.00,,Overcast,130,2013-02-10 06:20:00
12:34 AM,35.6,33.8,93,29.87,7.0,SE,15.0,-,0.00,,Overcast,140,2013-02-10 06:34:00
12:44 AM,35.6,33.8,93,29.87,6.0,SE,13.8,-,0.00,,Overcast,140,2013-02-10 06:44:00
12:55 AM,35.1,33.1,92,29.90,7.0,SE,12.7,-,0.00,Rain,Light Rain,140,2013-02-10 06:55:00
1:55 AM,35.1,34.0,96,29.88,5.0,SSE,12.7,-,0.00,,Overcast,150,2013-02-10 07:55:00
2:55 AM,35.1,34.0,96,29.84,3.0,SE,12.7,-,0.01,,Overcast,140,2013-02-10 08:55:00
3:55 AM,36.0,35.1,97,29.79,3.0,SE,12.7,-,0.00,,Overcast,140,2013-02-10 09:55:00
4:07 AM,35.6,35.6,100,29.74,2.5,SE,15.0,-,N/A,,Overcast,130,2013-02-10 10:07:00
4:39 AM,35.6,35.6,100,29.71,2.0,ESE,11.5,-,N/A,,Overcast,120,2013-02-10 10:39:00
4:55 AM,36.0,35.1,97,29.75,1.8,SE,11.5,-,N/A,,Overcast,130,2013-02-10 10:55:00
5:25 AM,37.4,35.6,93,29.67,2.0,SE,15.0,-,N/A,,Overcast,130,2013-02-10 11:25:00
5:53 AM,37.4,35.6,93,29.63,3.0,SE,19.6,25.3,N/A,,Overcast,140,2013-02-10 11:53:00
5:55 AM,37.4,35.6,93,29.64,3.0,SE,16.1,25.3,N/A,Thunderstorm,Overcast,140,2013-02-10 11:55:00
6:05 AM,37.4,37.4,100,29.64,2.5,SSE,17.3,23.0,0.00,Rain-Thunderstorm,Thunderstorms and Rain,150,2013-02-10 12:05:00
6:14 AM,37.4,37.4,100,29.64,1.8,SE,18.4,26.5,0.09,Rain-Thunderstorm,Light Thunderstorms and Rain,140,2013-02-10 12:14:00
6:19 AM,37.4,37.4,100,29.64,3.0,SE,15.0,-,0.10,Rain-Thunderstorm,Light Thunderstorms and Rain,140,2013-02-10 12:19:00
6:36 AM,37.4,37.4,100,29.62,4.0,SE,16.1,-,0.11,Rain,Light Rain,140,2013-02-10 12:36:00
6:55 AM,37.9,37.0,97,29.65,4.0,SSE,16.1,-,0.11,Rain,Light Rain,150,2013-02-10 12:55:00
7:38 AM,39.2,37.4,93,29.61,2.5,SSE,16.1,21.9,0.06,Rain,Light Rain,150,2013-02-10 13:38:00
7:46 AM,39.2,39.2,100,29.60,3.0,SSE,13.8,-,0.08,Rain,Light Rain,150,2013-02-10 13:46:00
7:53 AM,39.2,39.2,100,29.60,2.0,SSE,15.0,-,0.09,Rain,Light Rain,150,2013-02-10 13:53:00
7:55 AM,39.9,39.0,97,29.62,2.0,SSE,15.0,-,0.09,Rain,Light Rain,150,2013-02-10 13:55:00
8:08 AM,39.2,39.2,100,29.59,1.5,SE,12.7,-,0.01,Rain,Light Rain,140,2013-02-10 14:08:00
8:28 AM,39.2,39.2,100,29.56,3.0,SE,15.0,-,0.03,Rain,Light Rain,140,2013-02-10 14:28:00
8:55 AM,41.0,39.9,96,29.58,4.0,SSE,13.8,-,0.04,,Overcast,150,2013-02-10 14:55:00
9:55 AM,44.1,43.0,96,29.53,2.5,SSE,13.8,-,N/A,,Overcast,160,2013-02-10 15:55:00
10:11 AM,44.6,42.8,93,29.50,4.0,SSE,15.0,-,N/A,,Overcast,160,2013-02-10 16:11:00
10:55 AM,48.9,46.9,93,29.52,9.0,South,16.1,24.2,0.01,Rain,Light Rain,190,2013-02-10 16:55:00
11:27 AM,51.8,48.2,88,29.48,10.0,SSW,19.6,27.6,0.01,,Mostly Cloudy,200,2013-02-10 17:27:00
11:40 AM,51.8,48.2,88,29.47,10.0,South,19.6,28.8,0.01,,Mostly Cloudy,190,2013-02-10 17:40:00
11:55 AM,52.0,48.0,86,29.47,10.0,South,23.0,31.1,0.01,,Mostly Cloudy,180,2013-02-10 17:55:00
12:48 PM,55.4,46.4,72,29.42,10.0,SSW,23.0,35.7,N/A,,Scattered Clouds,200,2013-02-10 18:48:00
12:55 PM,55.9,45.0,67,29.43,10.0,SSW,21.9,31.1,N/A,,Partly Cloudy,210,2013-02-10 18:55:00
1:55 PM,57.0,39.0,51,29.41,10.0,SSW,21.9,42.6,N/A,,Clear,210,2013-02-10 19:55:00
2:55 PM,55.9,33.1,42,29.42,10.0,SW,27.6,43.7,N/A,,Clear,220,2013-02-10 20:55:00
3:55 PM,53.1,32.0,45,29.45,10.0,SW,28.8,40.3,N/A,,Partly Cloudy,230,2013-02-10 21:55:00
4:55 PM,48.9,32.0,52,29.51,10.0,SW,20.7,33.4,N/A,,Mostly Cloudy,230,2013-02-10 22:55:00
5:55 PM,46.9,30.9,54,29.55,10.0,WSW,16.1,27.6,N/A,,Overcast,240,2013-02-10 23:55:00
6:55 PM,44.1,28.0,53,29.59,10.0,WSW,24.2,38.0,N/A,,Overcast,240,2013-02-11 00:55:00
7:55 PM,42.1,28.0,58,29.61,10.0,WSW,16.1,31.1,N/A,,Overcast,250,2013-02-11 01:55:00
8:55 PM,39.0,28.0,65,29.65,10.0,WSW,16.1,32.2,N/A,,Overcast,250,2013-02-11 02:55:00
9:28 PM,37.4,26.6,65,29.63,10.0,WSW,16.1,39.1,N/A,,Overcast,250,2013-02-11 03:28:00
9:50 PM,37.4,26.6,65,29.65,10.0,West,28.8,41.4,N/A,,Overcast,260,2013-02-11 03:50:00
9:55 PM,37.4,26.6,65,29.65,10.0,West,23.0,43.7,N/A,,Overcast,260,2013-02-11 03:55:00
10:14 PM,37.4,26.6,65,29.66,10.0,WSW,18.4,31.1,N/A,,Overcast,250,2013-02-11 04:14:00
10:55 PM,36.0,24.1,62,29.70,10.0,West,26.5,40.3,N/A,,Overcast,270,2013-02-11 04:55:00
11:04 PM,35.6,24.8,65,29.68,10.0,WSW,21.9,39.1,N/A,,Overcast,250,2013-02-11 05:04:00
11:55 PM,35.1,21.9,59,29.74,10.0,West,21.9,43.7,N/A,,Overcast,260,2013-02-11 05:55:00